Starlink 6176

operational
NORAD ID: 56388 Int'l Des: 2023-061 Owner: SPXS Country: US Constellation: starlink
LEOCIRCULAR

About Starlink 6176

Description loading...

Live Position

Loading 3D Globe...

Upcoming Passes

Altitude History

Altitude vs Time

uPlot chart will show altitude changes over time

Two-Line Element Set

1 56388U 23061Q 25259.18495465 .00002658 00000-0 21169-3 0 9990
2 56388 43.0040 65.7436 0002106 280.5697 79.4908 15.02552333130505
Epoch: Sep 16, 2025 • Age: 11 hours

Current Status

Altitude 561.1 km
Velocity 7.58 km/s
Sub-Earth Point -15.23°S, 177.92°E
Launch Date May 4, 2023
Age 2.3 years
Type internet

Technical Details

Classification Payload
Mass 305.00 kg
Dry Mass 290.00 kg
Total Mass 305.00 kg
Length 0.20 m
Diameter 2.80 m
Span 9.00 m
Shape Box + pan
Manufacturer SPXS
Bus Type Starlink
Phase Status In Orbit
Owner/State SPXS/US

Large Constellations

Loading constellations...